Change the Weather History Date:

Tuesday, July 23, 2013

  Actual Average Record
Temperature  
Mean Temperature 74 °F 68 °F  
Max Temperature 91 °F 82 °F 93 °F (2006)
Min Temperature 57 °F 54 °F 48 °F (2001)
Degree Days  
Heating Degree Days 0 1  
Month to date heating degree days 1 35  
Since 1 June heating degree days 134 265  
Since 1 July heating degree days 1 35  
Cooling Degree Days 9 3  
Month to date cooling degree days 136 51  
Year to date cooling degree days 191 65  
Since 1 June cooling degree days 191 64  
Growing Degree Days 24 (Base 50)    
Moisture  
Dew Point 29 °F    
Average Humidity 25    
Maximum Humidity 39    
Minimum Humidity 10    
Precipitation  
Precipitation 0.00 in 0.03 in 0.04 in (2008)
Month to date precipitation 0.16 0.67  
Year to date precipitation 2.17 6.84  
Sea Level Pressure  
Sea Level Pressure 29.95 in    
Wind  
Wind Speed 6 mph (West)    
Max Wind Speed 17 mph    
Max Gust Speed 27 mph    
Visibility 10 miles    
Events      
T = Trace of Precipitation, MM = Missing Value Source: NWS Daily Summary

Daily Weather History Graph

Daily Weather History Graph

Search for Another Location

Airport or City:

Trip Planner

Search our weather history database for the weather conditions in past years. The results will help you decide how hot, cold, wet, or windy it might be!

Date:

Astronomy

Jul. 23, 2013 Rise Set
Actual Time 6:11 AM MDT 8:49 PM MDT
Civil Twilight 5:39 AM MDT 9:21 PM MDT
Nautical Twilight 4:59 AM MDT 10:01 PM MDT
Astronomical Twilight 4:13 AM MDT 10:46 PM MDT
Moon 9:18 PM MDT (7/23) 7:25 AM MDT (7/23)
Length of Visible Light 15h 42m
Length of Day
14h 38m
Full, 99% of the Moon is Illuminated
Jul 23
Full
Jul 29
Last Quarter
Aug 6
New
Aug 14
First Quarter
Aug 20
Full

Hourly Weather History & Observations

Time (MDT) Temp. Dew Point Humidity Pressure Visibility Wind Dir Wind Speed Gust Speed Precip Events Conditions
12:53 AM 66.0 °F 30.0 °F 26% 29.91 in 10.0 mi SSE 4.6 mph - N/A   Clear
1:53 AM 68.0 °F 28.9 °F 23% 29.89 in 10.0 mi SSW 3.5 mph - N/A   Clear
2:53 AM 66.0 °F 28.9 °F 25% 29.89 in 10.0 mi SSE 5.8 mph - N/A   Clear
3:53 AM 64.0 °F 30.0 °F 28% 29.90 in 10.0 mi SSE 6.9 mph - N/A   Clear
4:53 AM 62.1 °F 30.0 °F 30% 29.90 in 10.0 mi SSE 6.9 mph - N/A   Clear
5:53 AM 61.0 °F 30.0 °F 31% 29.92 in 10.0 mi SSW 8.1 mph - N/A   Clear
6:53 AM 57.9 °F 32.0 °F 37% 29.96 in 10.0 mi East 4.6 mph - N/A   Clear
7:53 AM 64.0 °F 30.9 °F 29% 29.95 in 10.0 mi SSE 4.6 mph - N/A   Clear
8:53 AM 70.0 °F 32.0 °F 25% 29.96 in 10.0 mi South 3.5 mph - N/A   Clear
9:53 AM 75.9 °F 27.0 °F 16% 29.95 in 10.0 mi SW 6.9 mph - N/A   Clear
10:53 AM 82.0 °F 21.9 °F 11% 29.96 in 10.0 mi Variable 4.6 mph - N/A   Clear
11:53 AM 84.0 °F 24.1 °F 11% 29.94 in 10.0 mi SW 6.9 mph - N/A   Clear
12:53 PM 84.0 °F 25.0 °F 12% 29.95 in 10.0 mi West 9.2 mph - N/A   Clear
1:53 PM 87.1 °F 28.0 °F 12% 29.91 in 10.0 mi Calm Calm - N/A   Clear
2:53 PM 90.0 °F 32.0 °F 13% 29.90 in 10.0 mi NNW 11.5 mph 21.9 mph N/A   Clear
3:42 PM 89.6 °F 32.0 °F 13% 30.25 in 10.0 mi NNW 13.8 mph 21.9 mph N/A   Clear
3:53 PM 89.1 °F 30.9 °F 12% 29.89 in 10.0 mi NNW 10.4 mph 23.0 mph N/A   Clear
4:53 PM 88.0 °F 28.0 °F 12% 29.90 in 10.0 mi West 15.0 mph 25.3 mph N/A   Clear
5:17 PM 89.6 °F 30.2 °F 12% 30.24 in 10.0 mi NNW 16.1 mph 24.2 mph N/A   Clear
5:53 PM 88.0 °F 30.0 °F 12% 29.89 in 10.0 mi NW 13.8 mph 21.9 mph N/A   Clear
6:53 PM 86.0 °F 28.9 °F 13% 29.91 in 10.0 mi NW 10.4 mph - N/A   Clear
7:53 PM 81.0 °F 30.0 °F 16% 29.91 in 10.0 mi NNW 16.1 mph - N/A   Clear
8:53 PM 73.9 °F 27.0 °F 18% 29.93 in 10.0 mi NNW 10.4 mph - N/A   Clear
9:53 PM 72.0 °F 27.0 °F 19% 29.94 in 10.0 mi NNW 8.1 mph - N/A   Clear
10:53 PM 71.1 °F 27.0 °F 19% 29.93 in 10.0 mi NNE 3.5 mph - N/A   Clear
11:53 PM 71.1 °F 26.1 °F 19% 29.93 in 10.0 mi Calm Calm - N/A   Clear